Weather Roundup
Issued by NWS Springfield, MO

Home | Current Version | Previous Version | Text Only | Print | Product List | Glossary On
Versions: 1 2 3 4 5 6 7 8 9 10 11 12 13 14 15 16 17 18 19 20 21 22 23 24 25 26 27 28 29 30 31 32 33 34 35 36 37 38 39 40 41 42 43 44 45 46 47 48 49 50
000
NZUS99 KSGF 311107
HRRSGF

HOURLY WEATHER
NATIONAL WEATHER SERVICE SPRINGFIELD MO
600 AM CDT FRI JUL 31 2015

......SGF CWA......

CITY           SKY/WX    TMP DP  RH WIND       PRES   REMARKS
SPRINGFIELD    PTCLDY    70  64  81 CALM      30.17S
JOPLIN         MOCLDY    70  65  84 VRB5      30.17R
WEST PLAINS    CLEAR     63  59  87 CALM      30.18R
ROLLA          CLEAR     63  62  97 SW5       30.16R
OSAGE BEACH    CLOUDY    63  61  94 CALM      30.17S VSB<1/4
BRANSON        MOCLDY    64  63  94 CALM      30.19R

......SURROUNDING SGF CWA......

CITY           SKY/WX    TMP DP  RH WIND       PRES   REMARKS
CHANUTE        MOCLDY    69  67  93 CALM      30.17R
PARSONS        MOCLDY    71  68  90 CALM      30.17R
COFFEYVILLE    MOCLDY    74  69  85 CALM      30.14S
EMPORIA        CLEAR     65  64  97 NW3       30.17S
GROVE OK       MOCLDY    72  72 100 CALM      30.16R
ROGERS AR      MOCLDY    71  65  81 E5        30.18R
SILOAM SPRINGS CLOUDY    70  61  73 CALM      30.15R
HARRISON AR    PTCLDY    63  62  97 N3        30.18R
NEAR YELLVILLE PTCLDY    64  63  94 CALM      30.14S

......KANSAS AND MISSOURI......

CITY           SKY/WX    TMP DP  RH WIND       PRES   REMARKS
KANSAS CTY INT PTCLDY    65  60  84 SW6       30.16S
DOWNTOWN KC    CLEAR     68  65  90 CALM      30.16R
COLUMBIA       CLEAR     68  63  84 W6        30.15S
SEDALIA        CLEAR     66  61  84 SW6       30.17R
ST JOSEPH      FOG       65  65 100 CALM      30.17R VSB 1
ST LOUIS       PTCLDY    71  64  78 W6        30.13R
SPIRIT OF STL  CLEAR     66  66 100 CALM      30.12R
KIRKSVILLE     PTCLDY    67  62  84 W6        30.15S
WICHITA        MOCLDY    74  67  78 CALM      30.17R
TOPEKA         CLEAR     63  62  97 CALM      30.16S
OLATHE         CLEAR     63  62  97 SW3       30.17R

......TENNESSEE......

CITY           SKY/WX    TMP DP  RH WIND       PRES   REMARKS
MEMPHIS        PTCLDY    73  64  73 CALM      30.09R
NASHVILLE      PTCLDY    66  63  90 CALM      30.09R

......ARKANSAS.......

CITY           SKY/WX    TMP DP  RH WIND       PRES   REMARKS
FAYETTEVILLE   MOCLDY    66  65  96 CALM      30.17R
FT SMITH       CLEAR     72  67  84 NE5       30.12R
LITTLE ROCK    MOCLDY    72  61  68 N5        30.10S

......OKLAHOMA.......

CITY           SKY/WX    TMP DP  RH WIND       PRES   REMARKS
TULSA          MOCLDY    76  71  85 E5        30.12R
PONCA CITY     MOCLDY    73  70  90 NE3       30.14S
MCALESTER      PTCLDY    75  71  87 E3        30.12R
OKLAHOMA CITY  MOCLDY    76  73  91 E7        30.14R

......IOWA............

CITY           SKY/WX    TMP DP  RH WIND       PRES   REMARKS
DES MOINES     MOCLDY    69  63  81 SW5       30.11R
QUAD CITIES    CLEAR     66  62  87 SW6       30.06S

......ILLINOIS........

CITY           SKY/WX    TMP DP  RH WIND       PRES   REMARKS
QUINCY         CLEAR     66  63  90 SW5       30.12S
CHICAGO        PTCLDY    67  59  75 W8        30.01S



USA.gov is the U.S. government's official web portal to all federal, state and local government web resources and services.